TimeEST,TemperatureF,Dew PointF,Humidity,Sea Level PressureIn,VisibilityMPH,Wind Direction,Wind SpeedMPH,Gust SpeedMPH,PrecipitationIn,Events,Conditions,WindDirDegrees,DateUTC
12:58 AM,41.4,41.0,99,29.98,10.0,West,4.6,-,N/A,,Clear,270,2013-02-20 05:58:00
1:58 AM,39.7,39.6,99,30.01,10.0,WNW,10.4,-,N/A,,Clear,300,2013-02-20 06:58:00
2:58 AM,39.7,31.3,72,30.01,10.0,WNW,9.2,-,N/A,,Clear,300,2013-02-20 07:58:00
3:58 AM,37.2,28.9,72,30.02,10.0,WNW,6.9,-,N/A,,Clear,300,2013-02-20 08:58:00
4:58 AM,35.6,27.0,71,30.04,10.0,WNW,6.9,-,N/A,,Clear,290,2013-02-20 09:58:00
5:58 AM,34.5,23.4,64,30.07,10.0,WNW,6.9,-,N/A,,Clear,290,2013-02-20 10:58:00
6:58 AM,33.3,21.0,61,30.09,10.0,Variable,2.3,-,N/A,,Clear,0,2013-02-20 11:58:00
7:58 AM,32.7,29.5,88,30.12,10.0,Calm,Calm,-,N/A,,Clear,0,2013-02-20 12:58:00
8:58 AM,41.4,21.4,45,30.12,10.0,WNW,6.9,-,N/A,,Clear,300,2013-02-20 13:58:00
9:28 AM,42.8,21.2,42,30.10,10.0,WNW,5.8,-,N/A,Rain,Light Rain,300,2013-02-20 14:28:00
9:38 AM,44.6,21.2,39,30.10,10.0,WNW,8.1,-,N/A,,Clear,290,2013-02-20 14:38:00
9:58 AM,44.8,19.9,37,30.12,10.0,WNW,6.9,-,N/A,,Clear,290,2013-02-20 14:58:00
10:58 AM,48.7,16.9,28,30.12,10.0,NW,9.2,-,N/A,,Clear,310,2013-02-20 15:58:00
11:44 AM,50.0,12.2,22,30.10,10.0,WNW,8.1,-,N/A,,Clear,290,2013-02-20 16:44:00
11:54 AM,50.0,14.0,24,30.09,10.0,West,9.2,-,N/A,,Clear,280,2013-02-20 16:54:00
12:54 PM,51.8,14.0,22,30.06,10.0,West,8.1,-,N/A,,Clear,270,2013-02-20 17:54:00
1:54 PM,55.4,14.0,20,30.03,10.0,SW,5.8,-,N/A,,Clear,230,2013-02-20 18:54:00
2:58 PM,54.7,15.4,21,30.03,10.0,West,10.4,-,N/A,,Clear,270,2013-02-20 19:58:00
3:58 PM,54.9,14.7,21,30.03,10.0,West,8.1,-,N/A,,Clear,270,2013-02-20 20:58:00
4:58 PM,53.2,14.9,22,30.05,10.0,WSW,10.4,-,N/A,,Clear,240,2013-02-20 21:58:00
5:58 PM,51.6,16.9,25,30.05,10.0,West,1.2,-,N/A,,Partly Cloudy,280,2013-02-20 22:58:00
6:58 PM,48.6,18.7,31,30.09,10.0,SSW,2.3,-,N/A,,Clear,210,2013-02-20 23:58:00
7:58 PM,46.0,21.4,38,30.11,10.0,West,4.6,-,N/A,,Clear,260,2013-02-21 00:58:00
8:58 PM,39.9,27.3,61,30.11,10.0,Calm,Calm,-,N/A,,Clear,0,2013-02-21 01:58:00
9:58 PM,36.3,27.1,69,30.12,10.0,Calm,Calm,-,N/A,,Clear,0,2013-02-21 02:58:00
10:58 PM,34.9,25.7,69,30.12,10.0,NW,2.3,-,N/A,,Clear,320,2013-02-21 03:58:00
11:58 PM,37.8,19.4,48,30.11,10.0,Variable,5.8,-,N/A,,Partly Cloudy,0,2013-02-21 04:58:00